Find Local Weather

World > North America > United States > Wisconsin

Kimberly, Wisconsin Regional Weather

Lat: 44.28N, Lon: 88.31W
Wx Zone: WIZ038
Warning FLW WEATHER ALERT - (More Info. Click Here) Warning
Feedback
Expires:201810151800;;229380
ASUS43 KGRB 151711
RWRGRB

NORTH-CENTRAL AND NORTHEAST WISCONSIN REGIONAL WEATHER ROUNDUP
NATIONAL WEATHER SERVICE GREEN BAY WI
1200 PM CDT MON OCT 15 2018


WIZ038-039-048-051-151800-
FOX VALLEY
  
CITY           SKY/WX    TMP DP  RH WIND       PRES   REMARKS
NWS GREEN BAY  PTSUNNY   39  26  59 W22G31    30.10R                  
APPLETON       PTSUNNY   37  23  56 W18G28    30.10R                  
OSHKOSH        CLOUDY    38  26  62 W18G28    30.13R                  
FOND DU LAC    FAIR      40  25  55 NW20G30   30.13R                  
$$


SKY/WX - Weather  TMP - Temperature  DP - Dew Point  RH - Relative Humidity
WIND - Wind Direction/Speed PRES - Barometric Pressure